Hourly Data Report for October 06, 2016

All times are specified in Local Standard Time (LST). Add 1 hour to adjust for Daylight Saving Time where and when it is observed.

TORONTO INTL A
ONTARIO

43°40'36.000" N
79°37'50.000" W
173.40 m
6158731
71624
YYZ

Download Data

Hourly Data (October 2016)
Hourly Data Report for October 6, 2016
Temp Definition
°C
Dew Point Temp Definition
°C
Rel Hum Definition
%
Wind Dir Definition
10's deg

Wind Spd Definition
km/h
Visibility Definition
km
Stn Press Definition
kPa
Hmdx Definition


Wind Chill Definition


Weather Definition


TIME
00:00 Legend Double Dagger 16.4 13.5 83 20 10 24.1 100.13     LegendNANA
01:00 Legend Double Dagger 16.2 13.5 84 18 10 24.1 100.14     Mostly Cloudy
02:00 Legend Double Dagger 16.1 13.4 84 20 9 24.1 100.15     LegendNANA
03:00 Legend Double Dagger 16.5 13.3 81 20 12 24.1 100.13     Rain
04:00 Legend Double Dagger 16.2 13.2 82 19 7 19.3 100.12     Mostly Cloudy
05:00 Legend Double Dagger 15.5 13.4 87 36 2 19.3 100.17     LegendNANA
06:00 Legend Double Dagger 16.4 13.4 82 15 5 19.3 100.18     LegendNANA
07:00 Legend Double Dagger 16.2 13.4 83 12 7 24.1 100.23     Mostly Cloudy
08:00 Legend Double Dagger 17.6 13.4 76 17 7 24.1 100.28     LegendNANA
09:00 Legend Double Dagger 19.1 14.0 72 18 9 24.1 100.26     LegendNANA
10:00 Legend Double Dagger 20.1 14.5 70 16 13 24.1 100.29     Clear
11:00 Legend Double Dagger 20.5 15.1 71 13 10 24.1 100.31 25   LegendNANA
12:00 Legend Double Dagger 21.4 15.6 69 14 8 24.1 100.29 26   LegendNANA
13:00 Legend Double Dagger 21.6 16.0 70 13 9 24.1 100.27 26   Clear
14:00 Legend Double Dagger 22.3 15.8 66 12 12 24.1 100.23 27   LegendNANA
15:00 Legend Double Dagger 23.0 15.0 60 13 13 24.1 100.24 27   LegendNANA
16:00 Legend Double Dagger 22.4 15.6 65 14 13 24.1 100.23 27   Mainly Clear
17:00 Legend Double Dagger 21.3 15.0 67 13 10 24.1 100.26 25   LegendNANA
18:00 Legend Double Dagger 18.7 15.6 82 14 13 24.1 100.27     LegendNANA
19:00 Legend Double Dagger 17.6 15.6 88 12 10 24.1 100.29     Clear
20:00 Legend Double Dagger 17.5 14.6 83 12 10 24.1 100.31     LegendNANA
21:00 Legend Double Dagger 17.2 12.8 75 11 9 24.1 100.30     LegendNANA
22:00 Legend Double Dagger 16.5 12.7 78 11 8 24.1 100.27     Clear
23:00 Legend Double Dagger 16.1 13.1 82 7 7 24.1 100.24     LegendNANA

Notes on Data Quality.

Legend

  • E = Estimated
  • M = Missing
  • NA = Not Available
  • ‡ = Partner data that is not subject to review by the National Climate Archives
Date modified: